LIMJLFKB

Guest
Details From LIMJ - Genova Sestri
To LFKB - Bastia Poretta
Flight Number -
Tags generated
Created
Modified
Stats Distance 115 nm / 213 km
Max Altitude 0 ft / 0 m
Waypoints 2
Social Downloads 0
Likes 0
Share VATSIM

Download

Looking for another format? Having issues loading an existing format? Contact us
Advertisement - Login to hide

Notes

Basic altitude profile: - Ascent Rate: 2500ft/min - Ascent Speed: 250kts - Cruise Altitude: 35000ft - Cruise Speed: 420kts - Descent Rate: 1500ft/min - Descent Speed: 250kts Options: - Use NATs: yes - Use PACOTS: no - Use low airways: no - Use high airways: no

Route

LIMJ LFKB

ID Type Via Altitude Latitude Longitude Leg Dist Tot Dist Heading (true) Name
O LIMJ APT - 0 ft / 0 m 44.41196˚ 8.84187˚ - 0 nm - Genova Sestri
O LFKB APT - 0 ft / 0 m 42.55251˚ 9.48371˚ 115 nm 115 nm 166° / 166° Bastia Poretta

Altitude Profile

Advertisement - Login to hide

LIMJ

Details ICAO LIMJ (GOA)
Name Genova Sestri
Region Italy
Timezone Unknown (UTC+0.0)
Stats Elevation 13 ft / 4 m (AMSL)
Location 44.411957° 8.841866°
Runways 1
Magnetic Variation 2.437° E

METAR

LIMJ 220450Z VRB02KT 9999 FEW025 BKN045 18/14 Q1012

Decode

TAF

TAF LIMJ 212300Z 2200/2224 20008KT 7000 RA SCT025 BKN050 TEMPO 2200/2206 4000 TSRA TEMPO 2215/2224 4000 TSRA

Decode

Departure Runways

ID Width Length Bearing (true) Bearing (mag) Surface Threshold Offset Overrun Length
10 148 ft / 45 m 9,574 ft / 2,918 m 105.39° 102.95° Asphalt 0 ft / 0 m 0 ft / 0 m
28 148 ft / 45 m 9,574 ft / 2,918 m 285.41° 282.97° Asphalt 538 ft / 164 m 0 ft / 0 m

LFKB

Details ICAO LFKB (BIA)
Name Bastia Poretta
Region France
Timezone Europe/Paris (UTC+2.0)
Stats Elevation 25 ft / 8 m (AMSL)
Location 42.552508° 9.483709°
Runways 1
Magnetic Variation 2.532° E

METAR

LFKB 220500Z AUTO 04002KT 3900 // OVC094/// ///CB 16/15 Q1011

Decode

TAF

TAF LFKB 220200Z 2203/2303 VRB03KT 9999 SCT015 BKN040 BECMG 2207/2209 06008KT TEMPO 2203/2214 34012KT SHRA SCT020CB BKN033 BECMG 2220/2223 24004KT SCT030 TX21/2212Z TN14/2203Z

Decode

Destination Runways

ID Width Length Bearing (true) Bearing (mag) Surface Threshold Offset Overrun Length
16 148 ft / 45 m 8,273 ft / 2,522 m 162.83° 160.30° Concrete 0 ft / 0 m 131 ft / 40 m
34 148 ft / 45 m 8,273 ft / 2,522 m 342.84° 340.31° Concrete 0 ft / 0 m 0 ft / 0 m

Approach Navaids

Runway Type Ident Frequency Range Bearing (true) Bearing (mag) Slope Elevation
34 Localiser BP 111.35 MHz 27 nm / 50 km 342.81° 340.28° - 25 ft / 8 m (AMSL)
34 Glidescope BP 111.35 MHz 27 nm / 50 km 342.81° 340.28° 3.00° 25 ft / 8 m (AMSL)
34 DME BP 111.35 MHz 18 nm / 33 km - - - 69 ft / 21 m (AMSL)

Popular Alternatives